RH
39 49 55 68 65 47 40 42 31 23 19 23 22 20 15 11 9 6 5 5 5 21 22 22 27 23 32 76 84 85 85 83 75 72 68 68 67 63 59 61 42 30 14 13 12
36 39 44 66 71 76 64 62 42 34 30 24 22 20 14 11 9 8 6 5 5 10 22 21 29 28 25 62 83 83 85 84 75 73 68 72 69 65 60 58 57 26 14 14 14
52 58 64 79 85 85 66 64 59 47 40 29 22 21 18 14 11 8 7 6 6 5 18 22 22 34 25 41 81 83 80 83 74 74 72 75 71 67 62 54 46 20 15 15 15
52 62 61 91 94 79 73 68 64 53 34 40 26 20 18 15 11 8 7 6 6 5 8 21 23 29 34 30 76 84 82 82 82 83 80 74 69 69 60 50 36 25 17 16 16
68 66 82 98 94 76 74 76 80 53 60 84 64 34 21 16 12 10 8 7 6 6 5 14 22 29 40 28 47 84 83 82 82 81 83 75 66 66 48 41 30 24 22 19 18
82 75 81 83 69 72 88 89 89 94 100 100 76 71 61 30 13 12 10 8 6 6 5 8 20 26 37 33 31 64 83 82 81 80 79 72 67 52 39 21 21 23 23 22 18
66 85 69 66 65 69 69 89 93 99 100 100 80 86 100 67 35 20 11 9 6 7 7 7 16 23 28 33 25 36 64 70 72 76 73 68 57 39 24 12 14 18 18 14 11
44 58 64 57 57 87 81 98 100 98 86 74 73 72 77 52 62 49 14 10 6 9 7 7 15 26 31 33 28 24 36 44 62 69 67 61 34 25 10 9 9 10 9 9 9
73 50 56 57 65 91 79 95 100 100 95 100 100 99 90 62 77 52 24 13 12 12 10 11 19 29 35 36 30 22 22 37 59 60 50 33 28 14 13 12 12 12 10 9 8
64 76 52 51 58 76 63 84 100 99 100 100 100 95 100 99 90 45 46 25 16 12 16 21 32 32 35 35 29 23 26 42 54 40 26 31 16 10 10 10 10 8 8 7 8
70 54 68 60 52 64 98 99 90 90 88 69 82 55 76 95 63 51 30 29 40 43 40 37 35 34 37 35 30 25 37 45 37 23 25 19 13 10 8 8 8 8 8 8 7
88 93 84 82 83 87 91 100 85 68 80 54 50 38 40 43 34 47 51 76 70 62 52 47 41 35 32 33 26 25 33 29 20 24 20 14 11 10 9 8 9 9 8 8 8
76 92 96 84 76 86 100 99 94 84 70 67 86 76 73 95 81 91 86 77 69 61 55 47 39 37 31 27 21 21 20 17 21 18 16 12 12 12 11 11 9 8 8 9 8
68 70 69 98 100 92 94 100 100 84 76 86 94 100 100 100 99 87 80 68 63 58 52 42 36 31 27 20 16 14 16 20 19 16 14 14 13 12 10 10 9 9 9 8 9
73 69 60 70 99 100 95 94 85 81 89 97 99 93 98 94 90 86 73 59 45 43 35 33 30 24 18 15 14 18 18 19 17 14 12 11 10 10 10 10 9 9 11 16 23
64 61 56 70 93 71 65 69 69 72 85 97 93 96 92 87 72 71 51 37 31 28 26 24 20 18 17 16 17 18 17 15 13 12 11 10 10 11 11 12 14 17 22 22 19
48 49 61 74 85 85 65 73 79 72 87 93 90 68 79 68 71 42 35 30 29 24 22 19 17 16 16 17 17 16 14 12 12 11 12 12 12 12 14 17 22 22 19 18 18
32 42 54 54 57 96 90 76 75 79 82 88 89 67 71 53 40 38 30 28 26 23 20 17 16 16 16 16 14 13 12 12 12 12 13 13 14 19 22 24 21 19 18 12 5
12 23 44 54 61 56 83 87 83 92 74 67 68 47 44 40 37 31 29 28 24 21 19 16 16 15 15 14 15 15 13 13 14 14 16 20 21 21 21 21 22 18 7 5 5
10 12 19 44 54 56 52 53 41 31 46 51 80 70 60 41 36 33 29 27 24 22 18 18 17 17 15 15 15 15 16 19 21 22 21 22 20 18 21 19 10 6 6 6 8
11 8 12 15 38 42 49 53 50 50 34 29 27 27 41 34 47 27 25 22 20 19 18 17 18 18 18 18 18 20 21 24 25 23 20 20 21 16 9 7 7 7 7 7 8
38 27 13 8 11 16 35 36 43 47 51 52 47 38 33 31 33 27 24 24 22 22 21 21 23 24 25 24 23 23 22 22 22 23 21 13 6 9 8 8 7 7 7 9 9
48 54 48 30 11 8 10 12 21 36 36 36 38 42 43 43 41 40 39 37 34 31 29 26 24 23 23 21 22 24 24 18 9 6 7 7 8 7 8 8 8 9 9 9 13
31 36 45 50 53 30 14 8 8 9 10 14 24 31 33 32 31 30 29 28 27 26 25 25 25 23 15 11 8 7 7 7 6 7 8 9 10 11 11 12 19 30 35 46 53
29 27 26 29 36 46 50 39 23 16 10 8 8 8 8 8 8 8 8 8 7 7 7 6 6 6 6 6 7 8 8 9 9 12 12 24 28 45 42 46 50 50 50 43 36
30 29 24 24 21 22 25 31 37 40 32 26 23 24 23 20 18 16 15 16 20 20 23 22 20 18 16 16 18 20 27 33 40 52 49 51 46 40 34 33 31 32 30 29 30
28 26 27 28 24 22 20 19 20 21 22 23 25 24 22 22 25 28 24 21 21 20 18 17 18 18 23 31 26 24 34 34 34 30 29 29 29 31 33 34 34 32 32 33 33
Wind_Speed
24 22 24 22 23 24 22 23 27 31 34 42 47 51 52 54 56 61 64 64 64 65 62 58 54 50 47 44 38 34 30 28 26 28 25 21 19 19 20 20 21 19 20 18 18
22 27 25 25 24 23 24 24 27 28 29 34 45 51 59 55 55 52 58 62 61 66 63 61 56 53 47 45 41 37 32 32 32 29 24 22 23 22 23 23 20 20 21 20 20
23 22 23 21 18 18 15 16 22 25 27 33 37 46 55 58 56 52 50 55 59 62 65 62 60 55 50 47 43 38 35 35 29 28 26 25 24 25 25 24 22 22 22 21 22
22 18 16 9 5 5 8 13 18 23 24 29 39 43 50 57 58 54 50 50 55 60 63 62 58 55 51 45 42 40 36 31 29 29 29 28 28 28 26 24 26 24 23 24 23
20 21 17 15 4 1 3 6 10 17 20 20 30 47 47 53 58 55 51 50 53 56 60 62 59 55 49 44 43 42 38 31 31 31 30 31 30 26 26 24 26 25 24 24 25
22 24 16 18 11 5 5 1 4 8 15 22 22 40 39 49 54 55 53 49 49 53 56 60 56 55 52 49 42 45 37 34 32 32 31 31 29 26 24 25 26 26 26 27 28
23 26 24 21 17 13 5 4 7 11 16 18 24 46 33 43 45 51 51 49 48 51 52 56 58 57 56 47 42 37 36 36 35 33 31 31 28 26 22 25 25 28 28 28 29
25 26 28 24 17 15 8 21 14 11 10 18 28 43 33 36 39 43 49 49 48 50 52 55 54 50 47 44 40 36 37 35 32 33 32 31 27 25 22 23 24 26 26 27 27
32 24 23 24 14 13 25 26 15 22 26 25 14 21 34 37 38 39 46 47 48 48 48 49 50 48 43 40 38 35 33 32 31 30 29 28 27 20 22 21 23 24 26 25 28
37 29 23 21 18 11 12 21 20 23 24 23 24 20 38 40 34 42 41 46 47 47 47 48 46 45 43 40 36 31 30 30 29 27 27 27 24 20 23 22 24 25 26 26 29
36 34 31 21 15 12 13 12 14 19 22 22 23 22 25 33 35 38 44 47 48 47 45 44 44 42 37 35 35 31 30 29 27 25 24 24 22 22 21 22 23 25 26 27 29
39 37 32 27 23 12 10 18 18 16 20 19 18 21 27 31 35 40 45 46 47 46 45 42 39 38 35 32 29 28 27 27 23 24 23 22 20 22 22 21 23 26 27 29 30
36 34 32 27 27 24 19 15 20 17 17 21 22 23 27 28 33 38 40 42 44 43 41 38 34 32 31 30 29 27 27 22 22 22 22 21 20 22 23 23 25 27 28 31 34
29 31 34 33 23 18 17 18 21 18 21 21 22 25 25 30 31 33 35 35 36 38 36 34 32 30 28 26 25 24 24 21 21 21 20 22 22 23 23 25 28 30 33 35 36
25 27 28 29 25 18 19 20 20 16 22 21 21 22 25 28 31 32 31 32 33 33 31 30 29 28 26 25 23 22 21 20 20 20 21 22 25 22 26 27 30 32 34 37 40
22 25 26 24 24 16 18 19 17 14 20 19 19 26 25 29 26 27 30 31 31 30 31 30 28 27 25 22 21 20 20 20 21 22 22 23 25 27 28 31 32 34 36 37 38
22 23 24 22 27 14 12 13 13 18 19 18 22 23 25 26 27 26 27 29 29 29 29 28 27 25 23 21 20 20 21 22 22 23 25 26 29 29 31 33 35 36 36 37 38
22 22 22 21 24 20 10 15 17 17 19 22 17 23 24 25 25 25 24 25 26 26 26 26 23 22 20 20 20 20 22 24 26 26 28 31 32 31 33 33 34 37 37 37 37
19 19 19 18 20 22 24 22 22 16 21 19 19 14 14 19 20 22 22 22 24 25 24 23 21 20 20 21 22 22 23 25 28 29 33 33 33 34 33 34 35 36 37 37 35
19 16 15 15 16 16 13 14 15 15 19 16 14 19 19 11 12 14 17 17 18 20 22 21 21 22 22 23 23 23 25 26 27 32 34 35 36 35 34 34 35 36 37 34 32
18 20 15 13 12 12 12 12 11 12 14 14 14 13 13 10 12 6 7 10 10 12 14 15 16 15 18 18 21 23 25 27 29 32 35 36 37 38 36 35 36 37 35 33 34
19 18 17 16 13 9 9 10 9 7 6 6 9 10 11 11 10 10 10 8 7 8 9 12 14 15 18 22 22 24 26 29 32 34 35 36 36 35 36 36 37 35 34 38 39
18 18 18 15 12 13 10 7 5 3 4 4 3 3 4 5 6 7 9 10 11 13 14 16 17 19 22 23 24 27 29 31 33 36 34 34 31 33 35 40 40 37 42 46 47
12 13 14 15 16 12 9 9 8 6 2 1 2 3 5 6 8 8 10 11 13 15 16 18 19 22 24 26 27 28 29 31 32 29 32 32 35 38 45 47 44 42 44 44 44
8 7 8 9 10 11 12 10 8 8 6 4 2 1 2 4 6 8 10 12 14 15 17 18 19 21 23 24 25 26 27 31 34 33 40 35 38 37 43 44 44 44 46 47 49
13 11 9 4 5 5 4 4 5 5 4 5 6 7 6 6 7 9 10 12 14 16 19 21 22 25 26 30 33 35 32 35 34 31 35 36 36 43 41 43 46 48 51 53 56
19 15 12 12 12 11 9 7 6 6 5 6 6 7 7 8 10 11 12 13 15 17 19 21 25 27 26 29 34 35 32 36 38 40 42 43 45 44 46 48 50 53 55 57 58
Wind_Direction
292 290 297 284 280 265 250 243 233 228 227 223 221 218 214 212 210 214 217 217 217 216 217 220 223 222 220 221 222 220 215 218 220 226 230 237 247 264 269 266 250 253 254 257 270
303 300 296 279 277 274 260 249 229 226 224 222 219 217 214 211 207 207 212 214 214 215 214 216 220 223 220 220 221 222 219 221 224 232 241 244 250 262 268 265 256 255 257 263 272
322 311 298 289 281 276 258 242 231 231 229 229 220 217 215 214 212 206 208 210 211 212 213 214 216 219 222 219 220 222 222 227 234 238 239 242 253 262 267 262 258 253 261 265 274
347 349 359 334 284 236 244 239 236 230 231 227 222 215 214 213 209 204 204 205 208 209 210 212 216 219 222 220 219 222 226 228 235 237 241 246 257 262 264 260 258 257 256 268 275
10 20 14 22 59 154 225 219 241 238 236 229 220 210 210 210 210 208 206 205 205 206 208 211 213 215 220 221 221 223 224 227 235 237 242 248 257 262 258 259 258 258 264 269 275
25 32 41 34 45 47 81 99 224 210 235 227 214 198 201 205 205 204 203 205 206 203 206 208 210 214 216 219 219 225 225 229 235 239 244 253 255 256 257 256 258 260 266 272 279
38 39 38 47 48 54 74 6 327 271 237 221 204 183 180 193 197 200 200 202 204 202 203 206 210 212 216 220 224 225 228 232 236 241 248 253 254 253 252 254 257 261 266 273 278
37 42 42 41 55 58 71 37 45 38 150 157 172 166 186 187 190 190 193 198 200 199 202 201 207 212 217 218 222 225 228 231 236 242 247 251 250 251 251 255 258 263 267 272 276
42 43 41 42 80 70 54 57 64 57 135 139 151 167 179 186 188 188 184 191 193 192 193 197 203 206 208 214 220 224 229 233 236 242 246 245 249 246 249 252 259 263 268 271 275
43 43 49 49 53 54 41 48 44 54 102 134 128 139 161 176 182 180 184 182 182 185 187 191 196 202 205 211 220 224 228 233 235 244 243 246 249 244 248 253 257 263 268 272 274
41 45 39 49 64 66 56 38 68 77 97 107 117 133 146 163 170 173 176 171 173 175 181 186 192 197 198 205 215 219 223 231 238 239 245 249 250 254 252 255 264 269 273 276 280
41 40 43 48 46 43 33 79 91 97 108 112 126 136 141 151 161 165 167 170 170 173 176 181 187 194 199 204 212 217 227 233 232 240 248 251 251 256 262 265 267 270 273 277 281
36 40 39 37 43 48 57 83 103 96 109 119 126 133 142 149 160 162 166 170 170 170 175 177 181 186 193 201 209 218 227 229 233 242 249 253 253 260 266 272 271 273 276 278 282
33 26 26 32 36 49 54 81 97 100 112 120 129 138 146 151 155 159 162 167 168 167 167 172 178 187 192 200 210 217 224 227 237 244 251 257 257 260 264 267 271 276 280 284 288
24 25 23 26 38 56 76 88 90 104 112 125 133 139 145 145 151 155 159 163 164 166 165 172 180 186 191 199 207 212 221 229 240 246 252 257 265 261 264 266 273 277 283 288 291
25 20 26 30 42 76 79 92 94 107 114 116 136 130 133 135 142 151 157 160 161 163 167 173 180 184 189 197 206 214 224 232 240 248 253 259 263 267 272 277 280 284 287 289 291
23 25 30 47 49 80 92 96 101 118 118 113 120 125 129 135 143 152 157 160 162 163 169 172 178 182 188 197 207 217 227 236 244 250 256 260 265 273 283 287 288 290 291 292 292
23 32 36 50 55 51 82 101 117 123 120 111 119 129 136 139 146 151 159 162 163 166 169 173 177 183 192 202 213 222 232 242 249 255 260 264 272 282 285 289 292 293 294 292 292
23 32 38 40 46 58 64 84 69 118 124 118 123 128 134 143 151 157 162 166 167 169 174 176 182 190 199 209 221 233 243 251 259 266 271 277 283 285 289 290 290 290 289 288 291
32 30 38 47 48 51 70 85 88 91 82 87 110 141 140 128 153 157 167 173 180 182 183 188 197 204 213 222 233 245 253 264 271 276 278 282 284 285 287 289 288 287 286 291 293
36 36 36 38 51 57 60 67 87 94 101 111 113 110 127 133 147 164 178 180 186 194 200 207 216 226 236 247 255 263 271 274 275 276 280 283 287 290 293 291 287 285 285 287 288
43 34 30 44 42 47 51 67 83 83 80 117 132 136 141 147 149 158 166 181 203 218 235 242 244 253 255 261 264 265 267 269 273 277 279 284 286 294 291 289 286 288 295 292 292
36 43 37 33 41 47 48 44 39 62 91 120 139 164 179 188 194 198 205 212 218 227 233 240 245 247 253 258 264 266 269 273 276 278 284 283 289 285 287 283 287 298 295 294 296
17 32 40 42 34 31 37 48 54 52 31 265 238 235 227 225 226 228 234 239 244 250 252 254 258 261 265 265 266 270 272 274 275 281 281 285 290 293 291 295 299 295 293 294 294
335 350 16 23 38 43 34 26 24 16 8 10 21 0 302 289 283 273 271 271 269 267 267 267 267 268 270 271 273 273 275 279 284 286 287 293 290 291 290 297 297 293 292 293 295
306 312 312 318 336 352 10 21 22 27 42 18 339 322 306 292 291 286 288 288 286 286 288 287 284 279 279 285 284 282 286 287 287 286 286 286 288 284 291 290 291 292 292 293 293
288 286 290 298 303 301 294 283 282 283 281 284 281 281 277 279 275 268 267 268 269 272 276 277 279 279 278 276 277 280 281 281 283 287 288 288 286 290 290 287 286 288 291 295 297